Regional Weather Roundup
Issued by NWS

Home | Current Version | Previous Version | Graphics & Text | Print | Product List | Glossary On
Versions: 1 2 3 4 5 6 7 8 9 10 11 12 13 14 15 16 17 18 19 20 21 22 23 24 25 26 27 28
000
ASUS45 KTFX 191110
RWRMT
MONTANA REGIONAL WEATHER ROUNDUP
NATIONAL WEATHER SERVICE GREAT FALLS MT
500 AM MDT SAT AUG 19 2017

NOTE: "FAIR" INDICATES FEW OR NO CLOUDS BELOW 12000 FEET WITH NO
SIGNIFICANT WEATHER AND/OR OBSTRUCTIONS TO VISIBILITY.

MTZ001>007-043-191200-
WEST OF THE DIVIDE

CITY           SKY/WX    TMP DP  RH WIND       PRES   REMARKS
KALISPELL      CLEAR     51  39  63 SW6       29.94S
MISSOULA       PTCLDY    58  34  40 N6        30.00S
BUTTE          CLOUDY    48  27  44 S5        30.11R
MULLAN PASS    CLEAR     53  38  56 VRB7      30.11S
ANACONDA         N/A     59  30  33 CALM      30.07S
DEER LODGE       N/A     59  30  33 CALM      30.08
EUREKA           N/A     57  37  47 MISG      29.89S
HAMILTON         N/A     70  34  26 CALM      30.02R
LIBBY            N/A     55  39  54 S5        29.90R
PLAINS           N/A     52  39  61 CALM      29.97
THOMPSON FALLS   N/A     52  39  61 CALM      30.01R
$$

MTZ008-052>055-191200-
SOUTHWEST MONTANA

CITY           SKY/WX    TMP DP  RH WIND       PRES   REMARKS
BOZEMAN        PTCLDY    52  38  58 SE9       30.03S
DILLON         CLOUDY    56  34  43 S10       30.06S
W YELLOWSTONE  CLOUDY    37  34  87 CALM      30.19S
ENNIS          CLOUDY    59  34  38 CALM      30.12R
THREE FORKS      N/A     44  38  79 CALM      30.01S
TWIN BRIDGES     N/A     49  36  61 CALM      30.04
$$

MTZ009-010-012-014-046-048-049-054-191200-
EAST SLOPES AND CENTRAL MONTANA

CITY           SKY/WX    TMP DP  RH WIND       PRES   REMARKS
CUT BANK       PTCLDY    54  46  74 N21G26    29.99R
GREAT FALLS    CLOUDY    64  29  26 SW16      29.93R
MALMSTROM AFB  CLOUDY    71  31  22 NW9       29.92R
HELENA         CLOUDY    70  33  25 SW7       30.00S
AUGUSTA          N/A     60  26  27 NW10G17   29.98R
BOWMANS CRNR     N/A     63  28  26 W7        29.96R
CHOTEAU          N/A     61  28  29 NW9       29.97R
FAIRFIELD        N/A     58  27  30 W7        29.94R
POWER            N/A     58  28  30 W8        29.93R
RAYNESFORD       N/A     73  28  18 W15G24    29.94R
ULM              N/A     70  30  22 W14       29.93R
$$

MTZ011-013-016-021-045-047-050-051-191200-
NORTH CENTRAL MONTANA

CITY           SKY/WX    TMP DP  RH WIND       PRES   REMARKS
HAVRE          CLOUDY    63  35  35 W9        29.84R
LEWISTOWN      CLOUDY    64  29  26 SW12      29.94S HAZE
N BAR RANCH      N/A     70  27  19 W12       29.96F
CHINOOK          N/A     63  36  36 W7        29.81R
DENTON           N/A     71  28  19 W5        29.86R
GEYSER           N/A     66  28  23 W13       29.93S
GRASS RANGE    MOCLDY    64  29  26 W14       29.89R
JUDITH GAP     MOCLDY    66  29  25 NW3       29.98S
WINIFRED       CLOUDY    69  28  21 S5        29.89R
$$

MTZ017>020-022>027-061-062-191200-
NORTHEAST MONTANA

CITY           SKY/WX    TMP DP  RH WIND       PRES   REMARKS
GLASGOW        MOCLDY    60  41  49 CALM      29.74S
JORDAN           N/A     61  32  33 W10       29.80R
SIDNEY         CLOUDY    60  50  69 S5        29.75F
WOLF POINT     PTCLDY    54  42  64 NW3       29.73F
MALTA          CLEAR     54  41  62 SW8       29.77R
PLENTYWOOD       N/A     61  52  72 CALM      29.73F
POPLAR           N/A     57  48  72 CALM      29.73F
SCOBEY           N/A     59  45  59 CALM      29.73F
$$

MTZ028>42-056>058-191200-
SOUTHCENTRAL AND SOUTHEAST MONTANA

CITY           SKY/WX    TMP DP  RH WIND       PRES   REMARKS
BAKER          CLEAR     53  44  71 SE3       29.84F
BILLINGS       PTCLDY    66  31  27 SW12      29.92R
LIVINGSTON     CLEAR     51  33  50 NW10      30.02R
MILES CITY     CLEAR     59  30  33 S5        29.80S
BIG TIMBER     CLOUDY    66  30  26 W14       30.01S
EKALAKA          N/A     74  38  27 S3        29.86
HARLOWTON      MOCLDY   N/A N/A N/A MISG        N/A
LAUREL           N/A     62  33  33 W2        29.93R
$$

REGIONAL REPORTS...DAKOTAS

CITY           SKY/WX    TMP DP  RH WIND       PRES   REMARKS
WILLISTON      CLOUDY    61  52  72 S6        29.75F
MINOT          CLEAR     68  54  60 S15G25    29.78F
DICKINSON      CLEAR     58  52  80 S12       29.80F
BEACH          MOCLDY    57  48  72 S8        29.83F
CROSBY           N/A     63  52  67 S14       29.73F
TIOGA            N/A     59  59 100 S7        29.79F
WATFORD CITY     N/A     57  50  77 CALM      29.76F
BISMARCK       CLEAR     58  56  93 E6        29.86F
GRAND FORKS    CLEAR     55  54  96 SW8       29.82F
FARGO          CLEAR     59  57  93 S7        29.87S
BUFFALO SD       N/A     58  48  69 S8        29.79F
RAPID CITY     CLEAR     55  49  80 SE8       29.89F
$$

REGIONAL REPORTS...WYOMING/IDAHO/WASHINGTON

CITY           SKY/WX    TMP DP  RH WIND       PRES   REMARKS
GILLETTE       CLEAR     66  39  37 SW8       29.95R
SHERIDAN       CLEAR     54  41  61 CALM      29.91F
BUFFALO WY     CLEAR     64  32  30 SW7       30.00R
CODY           CLEAR     72  30  21 VRB7      30.03S
YELLOWSTONE LA   N/A     37  35  92 CALM      30.28F
IDAHO FALLS    CLEAR     44  39  82 NW5       30.07S
SALMON         PTCLDY    50  41  71 CALM      30.06S
BOISE          CLEAR     60  32  34 SE5       29.99S
SPOKANE        PTCLDY    58  46  64 SW13      29.97S
$$

REGIONAL REPORTS...ALBERTA

CITY           SKY/WX    TMP DP  RH WIND       PRES   REMARKS
EDMONTON       CLEAR     45  41  87 W6        29.86S
CALGARY        MOCLDY    52  39  62 N12G20    29.98R
LETHBRIDGE     CLEAR     52  41  66 NW10      29.99R
MEDICINE HAT   CLEAR     55  43  62 NW10      29.92R
$$

REGIONAL REPORTS...SASKATCHEWAN

CITY           SKY/WX    TMP DP  RH WIND       PRES   REMARKS
SWIFT CURRENT  CLEAR     59  48  67 NW23G30   29.70R
SASKATOON      CLEAR     55  52  88 W13G20    29.62R
$$




USA.gov is the U.S. government's official web portal to all federal, state and local government web resources and services.